Theta_e
282 282 286 287 288 289 288 288 287 286 287 286 285 285 286 283 283 282 283 283 285 285 286 288 288 288 290 289 289 288 287 286 288 290 291 292 293 293 293 294 293 293 292 292 291 290 289 288 288 288 288 288 287 287 288 288 288 288 288 288 287 287 287 287 286 286 285 285 285 285 285 285 285 285 285 284 284 285 285 285 285 284 284 284 284 284 284
283 282 284 287 287 286 286 287 288 288 287 287 287 287 287 286 285 287 285 285 286 287 287 289 290 290 290 288 286 286 288 288 289 291 291 292 293 293 294 295 294 294 293 291 290 289 289 289 289 288 288 288 288 288 288 287 287 287 287 287 287 287 286 286 285 285 285 285 285 285 285 285 284 284 284 284 284 284 284 284 283 283 284 283 284 284 283
280 282 283 284 286 285 284 285 287 287 287 287 288 288 288 287 287 288 287 285 286 288 290 290 288 289 287 287 287 288 289 288 288 289 290 291 293 294 295 295 294 293 292 290 289 289 290 290 290 289 289 289 288 288 288 287 287 287 287 287 287 287 286 285 285 285 285 284 284 284 284 284 283 283 283 283 283 283 283 282 283 282 283 283 282 282 282
276 281 281 282 284 283 282 283 284 285 285 284 285 284 285 285 285 286 284 284 286 287 291 290 290 288 288 289 289 289 288 286 287 289 290 292 292 293 294 294 293 292 291 291 291 291 290 290 289 289 289 289 288 288 288 287 287 287 287 287 286 286 285 285 285 284 284 284 284 283 283 283 283 283 283 283 282 282 282 282 281 282 282 282 282 282 282
274 276 281 281 280 280 278 281 285 286 286 287 288 288 288 289 289 285 284 285 290 286 288 289 287 289 289 290 290 290 289 286 287 289 291 292 293 294 294 293 293 293 292 292 292 292 291 290 290 290 290 289 289 289 288 287 286 286 286 286 286 285 285 284 284 284 283 283 283 283 283 282 282 282 282 282 281 281 281 280 281 281 281 281 281 281 282
271 275 280 280 278 272 279 287 289 288 286 286 284 286 288 289 289 289 291 291 290 287 288 289 288 288 289 291 292 293 294 291 286 288 290 292 293 293 293 293 293 294 294 293 293 292 292 291 291 290 289 289 289 288 287 286 286 286 286 285 285 285 284 284 284 283 283 283 282 282 282 282 281 281 281 281 280 280 280 280 281 280 280 280 281 281 281
273 272 277 278 273 277 284 284 289 291 290 289 288 289 289 289 290 290 290 290 291 290 290 290 290 290 291 288 289 291 290 291 291 290 290 291 292 293 293 292 293 293 294 293 292 291 290 290 289 289 288 288 287 286 286 286 286 285 285 285 285 284 284 283 283 282 282 282 282 281 281 281 281 281 281 280 280 280 280 280 280 280 280 280 280 279 279
272 272 276 270 275 281 282 282 283 287 289 287 287 286 287 288 289 290 290 292 293 291 291 289 288 289 289 286 286 289 290 289 292 290 291 292 292 292 293 293 294 294 294 293 292 292 291 289 289 289 288 287 287 286 286 286 285 285 285 285 284 284 283 283 282 282 282 282 282 281 281 281 281 280 280 280 280 279 278 278 278 278 278 279 278 278 278
275 272 276 277 279 281 285 284 283 287 284 284 285 282 286 290 291 290 290 291 292 291 290 290 288 286 287 288 292 290 289 289 289 292 293 294 294 294 295 294 295 295 295 295 293 291 289 289 288 288 287 287 286 285 285 285 284 284 284 284 284 283 283 282 282 282 282 282 281 281 280 280 280 280 279 278 278 277 278 278 278 278 277 277 277 277 277
274 274 271 270 273 274 282 284 285 290 289 291 289 286 286 291 291 292 291 291 291 290 289 290 287 288 288 288 292 291 289 291 292 291 292 293 292 291 290 290 290 290 290 289 289 290 289 288 288 288 287 287 286 285 284 284 284 284 284 284 283 283 282 282 282 282 282 281 281 280 280 280 279 279 278 278 278 277 278 278 277 277 277 277 277 277 276
274 272 274 272 273 279 280 284 286 289 290 290 287 282 283 286 288 291 291 291 292 292 291 290 286 287 286 289 292 288 289 290 290 291 291 290 290 289 288 291 290 288 289 290 288 288 288 287 287 287 287 286 285 285 284 284 284 283 283 283 283 282 282 281 281 281 281 280 280 279 279 279 278 278 278 278 277 276 276 276 276 276 276 276 276 277 277
275 277 273 275 273 279 281 284 286 288 287 290 287 273 279 284 288 290 290 291 291 291 292 288 287 288 287 288 292 288 288 289 289 289 291 290 289 289 286 286 288 288 287 287 287 288 288 288 287 286 286 286 285 285 284 284 283 283 283 283 283 282 281 281 280 280 280 279 279 279 278 277 277 277 277 276 276 275 275 274 275 275 275 276 276 277 277
278 281 272 270 277 282 281 283 286 286 291 290 280 277 281 285 285 288 289 290 291 291 287 286 286 287 293 295 290 285 284 287 287 285 283 284 285 286 284 285 286 287 288 289 289 288 288 287 286 286 286 286 285 284 284 283 283 283 283 282 281 281 280 280 279 279 279 278 278 278 278 277 277 276 276 276 275 274 273 273 274 274 275 275 276 276 276
277 277 276 276 277 283 287 281 286 288 287 276 279 286 283 285 284 283 288 289 288 286 287 287 290 292 291 291 283 285 285 284 283 283 282 283 282 281 282 284 285 286 286 285 285 285 286 286 286 286 286 285 285 284 283 283 283 282 282 281 280 280 279 279 278 278 277 277 277 277 276 276 275 275 274 274 273 272 272 273 274 274 274 274 274 275 275
272 269 275 271 274 280 287 286 285 286 286 283 283 281 284 283 285 285 284 287 287 287 287 288 289 290 289 287 285 284 283 283 283 282 282 282 283 283 282 283 283 286 285 285 286 286 285 285 286 286 286 285 284 283 283 283 281 281 281 280 280 279 278 277 277 276 276 276 275 275 275 275 274 273 273 272 272 272 273 273 274 273 273 273 273 273 273
277 276 274 278 283 287 289 290 287 287 287 284 286 287 287 285 281 283 286 286 287 287 288 287 287 288 287 286 283 282 282 281 281 282 282 282 282 282 282 283 284 284 285 285 285 283 284 285 285 285 285 285 283 282 282 280 280 280 279 279 278 277 276 275 274 274 274 273 273 273 273 273 273 273 272 272 272 272 273 273 273 272 272 272 272 271 271
279 280 283 286 285 289 289 290 287 292 293 286 287 289 291 289 287 282 284 287 286 285 287 287 286 285 285 287 284 284 284 282 281 281 282 281 282 282 282 282 281 282 285 284 283 282 282 283 284 284 284 284 281 281 279 278 279 279 278 277 276 274 273 273 273 273 272 272 271 271 271 272 272 272 271 271 271 272 272 272 272 271 271 271 270 270 270
287 287 288 283 281 284 287 284 284 288 293 284 283 287 289 287 288 286 288 285 286 285 285 286 284 285 283 284 282 281 281 281 280 280 280 280 280 280 279 279 279 279 279 279 280 280 278 279 280 280 281 282 281 280 277 278 278 278 276 275 274 273 272 272 272 272 271 270 270 270 271 271 271 271 271 271 271 271 271 270 270 270 269 269 269 269 269
284 281 289 285 285 284 287 289 285 282 285 287 284 284 286 284 283 284 284 282 284 285 283 286 287 284 282 282 282 282 281 281 281 281 281 281 280 280 280 279 278 278 278 279 279 278 278 277 278 277 277 277 279 277 277 278 277 276 275 274 273 272 272 271 271 271 270 270 270 270 269 270 270 270 271 271 271 270 269 269 268 268 268 268 268 268 268
285 286 284 285 286 285 285 288 287 288 286 284 283 283 283 283 282 283 283 282 282 282 284 284 285 283 281 283 283 282 282 282 282 281 281 280 279 277 277 276 276 276 278 279 278 277 278 276 276 275 275 276 275 276 276 276 276 275 274 273 272 272 271 272 271 271 271 271 270 270 270 270 270 270 270 270 270 269 269 268 268 267 267 267 267 268 268
284 283 281 281 283 286 284 283 284 285 288 286 282 282 283 283 285 284 282 282 284 283 284 282 282 282 282 282 282 282 282 281 281 281 281 279 278 277 276 274 275 278 277 277 277 277 277 274 274 274 273 272 273 275 275 274 275 274 273 273 272 271 272 272 271 271 271 271 270 270 269 269 269 269 269 268 268 268 268 268 268 268 266 267 268 268 269
283 285 285 283 282 282 285 286 287 284 281 284 284 281 283 283 285 284 285 284 282 281 280 282 283 285 283 282 282 282 282 282 281 279 279 277 277 275 274 274 273 273 274 276 276 276 275 273 273 273 271 271 272 273 273 274 275 274 273 272 272 272 272 271 271 270 270 269 269 269 268 268 267 268 271 272 271 269 269 271 273 275 273 267 269 269 268
284 287 284 287 286 285 281 284 283 281 281 283 285 285 285 284 282 283 284 284 286 285 282 280 282 282 281 281 280 280 280 281 280 280 279 278 277 276 274 274 273 274 274 274 274 274 274 272 272 271 271 271 271 272 273 274 274 274 273 272 272 272 271 271 270 270 269 268 268 268 268 267 268 268 269 272 275 275 274 275 276 277 277 276 276 275 271
283 283 282 281 283 286 284 281 281 280 280 283 284 283 281 282 282 281 282 282 284 283 282 281 280 282 280 279 280 281 279 278 278 278 277 277 277 276 275 275 275 274 273 273 274 274 273 272 271 270 270 270 270 270 272 273 274 273 273 273 272 271 271 270 269 269 268 268 268 267 267 267 267 268 268 267 267 273 274 275 276 276 275 274 275 275 275
286 282 281 280 281 282 280 279 280 280 280 281 283 282 281 282 281 280 281 282 282 283 284 284 282 279 280 278 280 280 280 278 278 278 277 276 276 276 275 274 274 274 274 274 274 273 272 271 270 270 269 269 269 269 270 271 272 272 272 272 272 271 270 269 268 268 268 267 267 267 266 266 266 267 267 267 266 266 269 274 275 274 273 274 274 274 274
283 281 281 280 280 281 280 281 283 281 281 279 280 281 281 281 281 280 280 280 282 280 282 281 281 280 278 278 278 277 276 275 276 276 276 275 274 274 274 274 274 273 273 272 272 272 271 270 270 269 269 269 269 270 270 271 272 272 272 272 272 271 269 269 268 267 267 267 267 266 266 266 266 266 267 268 268 266 264 263 265 269 271 272 272 273 273
283 284 285 285 284 282 281 282 283 281 279 279 280 279 278 278 279 278 277 277 277 276 278 279 280 278 277 277 276 276 278 275 273 275 275 275 275 276 275 273 273 272 271 271 271 271 271 270 270 269 269 268 268 267 268 269 270 270 270 269 269 268 267 267 268 267 267 267 266 266 266 265 264 264 264 264 265 265 265 265 264 262 259 261 268 271 268
285 284 285 284 283 284 284 282 282 280 279 279 278 278 277 276 277 277 278 279 279 278 277 276 277 277 278 277 277 275 274 273 275 274 274 275 274 272 272 271 271 271 271 270 270 270 270 270 270 269 269 267 266 265 266 266 267 268 268 268 267 267 267 267 267 267 267 267 267 266 265 265 265 264 264 264 263 263 263 263 262 261 259 257 257 267 269
284 284 281 284 285 284 282 281 281 280 278 278 279 279 280 280 279 279 278 278 277 275 277 277 274 275 275 274 274 275 275 274 274 274 275 274 271 270 269 269 269 268 269 269 269 269 269 269 269 268 268 265 264 264 264 264 266 266 266 266 266 266 266 266 267 267 267 266 266 266 265 264 264 263 263 263 263 263 262 261 259 258 258 256 256 258 264
282 280 281 282 282 283 284 284 283 282 281 280 281 280 280 283 285 283 281 280 278 279 279 276 275 276 274 274 275 276 276 275 274 273 272 270 269 268 268 268 267 265 266 267 268 268 268 268 268 268 268 264 264 263 262 263 264 264 265 265 265 266 266 266 266 266 265 265 265 265 264 263 263 263 263 263 262 262 262 260 260 259 257 256 261 256 256
279 280 280 281 282 283 284 283 282 281 280 279 279 279 279 280 281 280 281 279 277 278 279 277 276 275 274 277 278 275 273 273 272 270 268 267 267 268 268 269 270 270 269 270 269 268 268 268 268 268 266 263 263 261 261 262 263 263 263 264 265 266 266 266 266 265 264 264 264 264 263 263 263 263 262 262 262 261 261 260 259 258 257 255 256 256 256
281 279 278 278 278 280 281 280 281 280 279 277 277 279 279 280 281 282 281 279 280 280 278 273 273 276 278 277 274 272 271 270 268 266 266 266 267 267 268 269 272 271 270 267 268 268 268 268 268 268 263 262 262 261 261 262 262 263 263 264 264 265 266 266 265 265 264 263 264 263 263 262 262 262 262 262 262 261 260 259 258 258 257 257 256 256 256
281 279 279 278 277 277 278 278 278 280 278 277 279 281 281 281 281 281 282 281 279 277 276 276 276 276 276 273 271 270 269 266 264 265 265 266 267 267 267 268 269 270 267 267 268 268 268 268 269 266 263 263 262 261 261 261 262 263 264 264 264 265 264 266 265 264 263 263 263 262 263 262 262 262 262 262 261 260 259 259 259 259 258 256 255 255 257
282 283 283 282 282 282 280 281 279 280 280 279 279 279 278 279 279 280 280 279 277 276 276 278 278 276 274 271 269 267 265 266 269 268 268 268 268 267 267 267 267 267 266 262 264 266 267 268 267 265 264 263 262 261 261 261 262 263 264 264 264 264 264 264 264 263 262 262 262 263 262 262 261 261 261 262 261 260 260 259 259 258 257 256 255 254 259
283 283 284 284 283 284 284 284 281 279 280 279 279 277 277 278 277 278 278 276 276 278 277 276 274 274 271 269 267 265 266 271 273 273 271 270 268 267 264 264 263 263 264 264 263 264 265 266 267 265 263 263 262 262 261 261 262 263 264 264 264 264 264 264 263 262 262 262 262 261 261 261 261 262 262 262 261 261 260 259 258 258 257 256 255 255 257
278 280 279 278 278 280 280 281 281 281 280 280 280 280 279 278 276 275 274 274 274 274 273 273 271 268 267 266 267 267 268 270 271 271 271 269 267 263 263 263 263 263 264 265 266 265 264 265 264 263 263 262 262 262 262 262 262 262 262 263 263 263 263 263 263 263 262 262 262 262 261 262 262 261 261 261 261 260 260 260 259 259 259 257 255 255 255
277 282 282 281 279 278 278 279 278 277 277 277 276 276 276 274 275 275 273 272 271 271 270 269 268 267 271 270 271 269 268 269 270 270 270 266 263 263 263 263 262 263 264 264 268 266 264 265 263 262 263 263 262 261 261 261 262 262 262 262 263 263 262 262 262 262 262 262 261 262 262 262 261 261 261 261 261 260 260 259 259 259 258 257 256 256 256
274 274 277 277 276 276 274 274 274 275 275 275 274 274 275 274 272 271 270 269 268 269 268 267 270 270 269 267 266 268 269 269 268 268 265 263 263 263 262 263 264 264 263 266 264 265 265 264 262 262 262 262 261 261 261 261 262 262 262 262 262 262 262 262 262 261 261 261 261 261 261 261 261 260 261 261 260 260 259 259 258 258 257 257 257 256 256
273 272 272 272 272 271 270 269 269 269 271 274 272 271 268 267 266 266 266 266 266 266 267 266 265 266 266 266 269 268 268 267 265 264 263 263 261 265 267 267 268 268 269 261 261 261 263 263 262 262 262 262 261 261 261 261 261 261 261 262 262 262 262 262 262 261 261 261 261 261 261 261 261 260 260 260 260 259 259 259 258 258 258 257 257 257 257
274 270 269 268 268 266 267 266 266 264 262 264 266 266 263 264 264 264 265 266 265 265 264 265 266 267 266 265 265 268 268 265 265 263 264 262 260 261 264 265 266 266 262 261 259 260 261 261 262 262 262 261 261 260 261 261 261 261 261 261 262 262 262 262 262 261 261 261 261 261 261 261 261 260 260 259 259 259 259 259 259 258 258 257 257 257 256
268 266 264 266 265 264 263 263 263 261 259 260 259 259 260 260 261 263 265 264 263 262 262 262 264 266 266 266 267 268 264 262 262 262 261 259 259 262 263 266 264 263 265 264 261 260 261 261 261 261 261 261 260 261 260 260 260 260 260 261 261 261 261 261 261 261 261 261 261 261 260 261 260 260 259 259 259 259 259 259 259 258 258 258 257 256 255
263 261 262 262 261 260 259 258 258 261 260 257 255 255 256 258 259 260 260 259 259 259 259 260 262 264 264 262 262 263 263 261 260 260 261 265 266 264 263 267 260 259 262 262 261 261 260 260 261 261 261 261 260 260 260 260 260 260 260 260 261 261 261 261 261 261 262 261 261 261 261 261 260 260 259 259 259 259 259 258 258 257 257 257 257 256 255
259 260 260 258 256 256 253 255 256 258 257 255 252 253 254 253 254 255 255 255 256 257 258 258 259 259 259 258 259 262 263 261 259 258 259 262 264 265 268 266 255 255 261 260 259 259 260 260 260 260 261 261 260 260 260 260 259 259 260 260 260 261 261 261 261 261 261 261 261 261 261 260 260 260 259 259 259 259 258 258 257 257 257 256 256 255 254
251 251 252 253 253 253 251 252 253 254 255 255 255 252 252 251 251 252 253 254 255 255 255 255 255 256 257 256 256 260 262 258 258 257 257 262 263 262 261 263 262 258 260 258 258 258 258 259 259 260 260 260 260 260 260 259 259 259 260 260 260 261 261 261 261 261 261 260 260 261 260 260 260 259 259 259 259 258 258 258 257 257 256 256 254 254 253
251 250 250 250 250 250 251 251 252 254 254 254 253 251 250 250 250 249 251 251 252 253 254 254 254 255 254 253 255 256 258 255 255 256 258 262 263 264 256 258 257 257 257 259 258 258 257 257 259 260 260 260 260 260 259 259 259 259 259 259 260 260 260 260 260 260 260 260 260 260 260 260 260 259 259 259 259 258 257 257 257 256 256 254 253 253 254
251 250 248 252 250 249 249 249 251 251 251 252 251 253 251 248 248 248 248 249 249 251 251 253 253 252 252 253 253 254 254 255 254 255 260 262 263 262 253 256 254 257 258 259 257 257 256 259 259 259 259 260 260 259 259 258 259 259 259 259 259 260 260 260 260 260 260 260 260 260 260 260 259 259 259 258 258 258 257 257 256 256 255 255 255 255 254
249 249 249 247 247 247 247 247 249 250 249 251 252 252 252 251 249 248 248 247 247 248 248 247 248 249 249 249 251 253 256 257 258 256 256 257 257 256 255 257 257 257 257 257 257 257 256 257 258 259 259 259 259 259 258 258 258 258 258 259 259 260 259 260 260 260 260 260 259 259 259 259 259 259 258 257 257 257 257 256 256 256 255 255 255 255 255
248 248 249 246 246 246 246 247 249 248 248 250 249 250 250 249 248 248 247 247 248 246 247 246 247 246 247 246 247 249 252 253 256 258 253 250 249 249 250 251 254 257 258 258 258 258 258 258 258 259 259 259 259 258 257 257 258 258 258 258 259 259 259 259 259 259 259 259 259 258 258 258 258 258 257 257 257 257 257 256 256 256 256 255 255 255 254
245 245 246 246 245 246 247 249 249 250 249 248 247 249 249 249 247 248 250 249 247 249 250 248 246 247 246 249 250 250 250 252 254 256 253 251 252 253 254 255 256 257 257 257 258 258 258 258 258 258 258 258 259 258 258 258 258 258 258 259 259 259 259 259 260 260 259 258 258 258 258 257 257 257 257 257 256 256 256 256 256 256 255 255 254 254 254
246 246 248 248 248 249 248 248 248 247 247 248 248 249 248 248 251 251 249 248 248 251 250 249 248 248 248 247 247 247 247 248 251 252 253 254 252 253 254 255 256 257 257 258 258 258 257 257 258 258 258 258 259 259 258 258 258 258 258 258 258 259 258 258 258 258 258 257 257 257 257 257 257 257 256 256 256 256 256 255 255 255 255 254 254 254 253
247 247 247 248 247 247 245 246 248 249 246 247 247 247 249 248 249 250 249 250 249 249 251 250 248 248 247 247 247 246 246 247 249 253 253 253 251 254 255 254 254 256 257 257 257 257 257 257 258 258 258 258 258 258 258 258 258 258 257 258 258 257 257 257 257 257 257 256 256 256 256 256 256 256 256 255 255 255 255 254 254 254 254 254 254 254 253
244 244 246 245 244 244 244 246 244 244 244 245 245 246 247 248 248 249 248 252 249 249 250 250 251 248 244 244 247 247 246 247 249 250 251 251 250 249 251 255 252 253 253 254 255 256 256 257 257 256 256 257 257 257 257 257 257 257 257 257 256 257 256 256 256 255 255 256 255 255 255 255 256 255 255 255 254 254 254 254 254 254 253 253 253 253 252
Wind_Speed
3 4 7 10 10 13 12 14 14 13 13 11 17 20 8 5 11 19 3 5 13 5 9 9 8 6 6 6 4 4 5 3 2 2 4 5 6 6 7 9 9 9 10 8 7 6 6 6 7 6 6 5 4 4 5 6 7 7 7 9 9 9 8 9 8 8 8 6 6 7 7 8 8 7 7 6 6 6 7 7 6 6 5 5 6 6 6
3 3 7 9 12 6 4 8 13 16 18 22 22 17 11 10 14 15 8 11 17 5 7 11 11 9 7 5 3 0 1 5 6 4 4 6 7 9 11 12 12 10 7 7 7 7 8 9 9 9 8 7 7 8 7 6 7 7 8 9 10 9 9 9 8 8 8 7 8 7 8 8 7 7 6 6 7 7 6 6 5 5 5 5 6 6 6
4 5 2 6 10 8 7 8 12 16 18 19 20 17 16 16 18 19 11 11 22 5 10 7 5 8 4 2 2 6 8 5 1 4 5 5 9 11 12 11 9 8 7 8 8 10 12 13 13 11 8 7 7 7 7 8 8 7 7 9 8 9 10 8 8 8 8 8 8 9 8 8 7 8 8 7 7 7 5 5 5 4 5 6 6 5 5
5 2 6 5 2 1 6 9 14 19 19 15 11 9 5 7 16 10 8 14 20 2 10 5 1 2 1 6 7 7 6 5 4 5 7 8 10 11 12 11 7 8 11 12 13 15 13 11 10 10 10 10 9 10 9 9 9 8 8 9 10 9 9 9 9 10 9 9 9 8 8 8 8 7 8 8 7 6 6 6 4 4 6 5 5 4 5
6 3 7 8 4 1 5 13 26 20 11 14 8 10 10 16 15 10 14 22 10 5 1 5 3 9 10 9 8 8 8 5 6 9 10 11 11 12 12 9 12 13 14 16 17 14 11 12 13 13 11 11 12 11 11 9 8 9 10 10 10 10 10 10 10 9 9 9 9 8 7 7 7 7 8 7 7 6 6 4 4 6 4 5 5 5 5
3 1 8 6 6 4 18 9 7 13 17 12 8 14 18 17 9 14 16 16 1 3 5 7 8 8 9 9 11 9 8 7 6 8 8 10 11 10 8 9 13 14 13 12 13 16 16 14 12 9 9 10 9 8 9 8 10 10 11 10 10 11 10 9 9 9 9 9 9 8 8 7 7 7 7 7 5 5 5 5 6 5 5 6 5 6 5
4 2 7 8 8 19 6 1 8 17 14 18 25 23 15 14 15 15 17 18 12 9 6 7 5 6 7 5 6 9 8 7 8 10 12 12 12 13 12 11 12 13 16 15 13 11 12 13 11 10 9 8 8 9 9 10 8 10 9 11 10 10 11 9 9 9 9 9 10 9 8 8 7 7 7 7 6 5 5 5 5 5 5 5 5 4 5
4 3 7 6 18 4 4 4 0 2 8 7 8 10 8 10 15 20 23 25 16 8 9 1 3 6 7 4 6 10 9 7 9 9 10 13 12 13 13 15 16 16 15 16 17 18 11 11 11 11 11 9 10 10 8 10 9 8 10 10 11 10 10 10 10 10 11 10 10 9 9 8 8 8 7 6 7 5 6 5 5 5 4 5 4 4 3
8 5 9 11 6 10 9 7 3 7 8 8 12 10 17 20 17 16 18 19 11 7 6 6 5 4 2 6 12 7 9 8 10 13 13 13 14 15 15 13 15 14 14 15 13 8 10 12 12 12 11 11 11 11 11 9 10 10 10 11 11 11 11 10 10 10 10 11 11 10 9 10 9 8 8 7 5 4 7 6 6 5 4 3 3 3 3
6 8 2 2 5 11 17 2 6 8 8 10 9 8 13 9 14 13 16 18 13 7 8 10 6 2 3 12 15 5 9 12 14 13 11 9 7 7 6 3 5 4 5 5 7 12 12 12 12 10 11 12 12 12 12 10 11 10 10 11 10 11 11 10 10 10 9 10 11 10 9 10 9 7 6 5 5 4 7 7 6 4 3 4 3 3 3
5 3 8 7 9 16 3 10 10 11 11 11 8 4 15 3 10 12 14 15 13 13 13 11 8 7 9 16 10 3 10 10 9 9 10 11 10 7 5 6 6 5 6 8 8 8 11 12 11 12 13 14 13 13 12 12 11 12 12 11 12 12 11 10 9 9 9 9 10 10 10 9 8 9 7 7 6 6 6 6 5 4 3 4 4 4 3
7 8 5 9 5 8 4 7 8 12 6 13 9 2 12 4 11 12 13 15 16 14 15 7 8 10 12 13 10 3 9 9 8 9 11 10 9 8 5 3 4 6 8 10 10 13 16 16 13 14 14 13 14 13 12 11 12 13 13 11 9 7 7 8 8 7 7 9 9 10 10 9 7 7 6 7 6 7 6 5 5 5 4 4 4 3 3
7 9 6 3 7 4 3 7 7 9 14 13 9 17 7 6 7 8 9 13 14 11 7 6 8 11 14 14 4 3 0 0 2 2 3 4 3 5 4 4 6 8 9 12 15 16 13 12 13 14 14 14 14 13 13 13 14 11 7 7 7 7 7 7 7 7 6 7 9 7 7 9 8 7 5 7 7 7 7 5 6 5 5 4 4 3 3
10 9 7 9 7 7 12 1 10 11 10 4 15 6 3 9 7 4 11 12 10 6 10 10 11 13 13 11 1 1 1 4 2 2 1 1 2 2 1 5 6 7 6 5 5 5 7 12 13 13 14 15 13 12 12 14 12 9 10 10 9 9 9 9 7 7 7 6 6 8 7 8 9 7 5 6 6 7 6 6 7 6 5 4 4 3 3
4 2 7 1 11 5 11 12 3 6 10 8 5 3 1 4 8 9 6 8 8 8 8 11 12 12 10 6 5 5 4 3 4 4 3 4 4 4 4 4 4 8 8 8 9 10 9 11 12 12 14 14 12 12 14 13 9 10 10 10 10 10 9 9 8 8 7 7 7 6 7 7 9 9 6 7 6 6 7 7 7 6 5 4 4 4 3
9 8 8 11 7 9 13 19 12 9 8 5 9 8 6 4 3 5 8 7 8 9 9 9 10 11 10 6 5 4 4 4 1 1 1 1 1 2 3 4 8 7 8 7 8 7 9 10 11 12 15 15 13 14 13 8 9 9 9 9 9 9 9 8 8 7 7 6 6 5 7 7 7 9 8 6 6 6 6 6 7 7 4 4 5 4 2
7 9 12 9 5 15 13 9 6 15 16 6 9 8 8 7 7 4 5 9 8 9 10 8 7 5 7 8 3 6 6 4 4 5 5 5 5 5 5 4 4 4 7 10 8 7 7 9 9 11 10 14 14 15 10 10 11 12 11 10 10 9 9 9 8 7 7 6 6 5 5 7 9 8 8 7 7 5 6 7 7 7 5 4 4 4 2
8 6 6 2 2 1 6 3 2 8 14 5 4 6 6 5 6 10 8 7 8 8 7 6 4 6 4 5 4 4 2 4 4 4 3 3 3 3 2 3 4 3 4 5 7 8 5 5 6 7 7 9 16 11 9 10 11 11 12 12 11 10 9 9 9 8 9 7 6 5 5 5 5 6 8 7 8 7 7 7 6 6 5 5 4 4 4
7 10 12 7 5 4 8 8 0 1 0 7 5 4 5 4 4 5 3 3 5 8 7 9 8 5 4 5 5 5 4 6 6 6 7 5 6 7 7 5 6 6 6 8 9 9 10 6 7 6 6 5 7 9 11 10 11 11 11 11 11 10 10 9 8 8 9 8 7 6 5 5 4 5 5 6 7 7 8 8 7 5 5 5 5 5 6
13 14 5 8 8 4 4 6 5 2 3 3 4 4 3 3 4 4 4 4 4 5 5 7 6 5 5 6 7 6 7 7 6 7 7 7 5 4 3 4 5 5 7 9 10 9 10 7 5 5 5 6 7 9 8 9 10 11 11 11 12 11 11 9 8 8 8 7 8 8 6 6 6 5 4 5 7 7 8 8 8 7 6 6 6 6 6
6 4 2 1 5 2 4 4 4 4 7 8 3 3 4 5 5 3 2 1 4 6 5 5 5 4 6 6 5 5 5 4 5 7 5 4 4 4 5 4 5 8 7 8 8 9 8 5 5 6 5 5 7 9 9 8 10 11 10 9 8 9 9 8 8 7 7 8 8 10 9 7 5 5 6 6 6 5 2 4 6 7 7 6 7 6 5
9 14 9 7 4 4 8 9 11 5 3 5 6 3 4 5 6 5 5 2 1 2 3 6 6 5 5 5 5 7 6 6 5 3 4 4 4 4 3 4 4 5 6 6 8 8 6 6 6 7 7 7 8 8 9 9 10 12 11 10 10 10 9 8 8 8 9 9 8 9 9 6 8 5 3 5 3 4 4 5 9 8 8 6 6 5 5
14 9 6 10 4 0 2 6 5 3 4 6 8 9 8 6 4 5 6 4 1 1 1 1 4 4 3 4 4 4 4 5 4 4 5 6 6 6 6 6 6 7 7 6 6 7 7 6 6 6 7 7 8 8 9 10 11 12 12 12 10 9 9 9 10 10 12 10 5 8 7 5 9 9 7 4 7 7 5 6 9 12 10 9 9 7 6
2 0 2 4 3 6 3 2 3 3 4 5 5 3 2 3 4 3 3 3 4 3 0 1 3 3 3 3 5 6 4 3 4 5 5 5 6 6 7 8 8 8 8 8 9 10 7 7 7 6 7 6 7 7 8 9 9 10 11 12 12 11 10 9 10 9 6 6 6 7 6 5 8 9 8 8 4 5 7 9 11 10 8 7 7 7 7
1 1 3 2 5 6 3 3 1 1 1 3 5 4 2 2 0 1 1 0 1 1 1 1 1 2 3 4 5 6 6 5 5 5 6 6 6 8 8 7 9 10 9 8 7 6 6 7 7 7 8 7 6 6 7 7 8 10 10 8 9 9 9 9 10 10 8 6 7 7 8 12 10 8 9 9 10 7 5 8 9 8 7 7 6 7 7
8 5 5 5 5 5 3 4 5 3 2 2 3 1 1 3 4 3 2 1 0 0 0 1 0 1 3 4 4 3 3 3 4 5 5 6 5 5 8 10 9 6 6 6 6 7 7 8 8 8 9 9 9 9 8 8 9 10 10 8 8 9 11 11 11 9 8 7 8 8 5 9 11 9 8 8 9 10 10 7 3 3 4 5 5 7 8
6 9 9 9 7 2 0 4 4 2 2 3 4 3 2 3 3 4 3 2 1 2 1 1 1 0 0 0 2 2 4 2 3 4 4 5 8 9 7 5 6 6 6 7 7 8 10 10 10 11 11 8 7 7 7 8 8 8 8 7 6 7 9 10 10 10 9 8 11 7 8 10 10 9 9 7 8 10 11 11 10 9 5 1 1 7 5
8 4 1 6 4 4 4 2 7 6 4 5 5 4 1 2 3 3 2 1 0 0 1 0 2 2 1 1 2 2 2 3 5 4 5 8 6 3 4 5 5 6 6 7 7 7 9 9 10 9 9 7 8 7 8 8 9 9 9 8 8 8 9 10 8 8 9 8 6 9 10 11 9 7 7 8 8 7 6 6 8 8 4 4 2 1 6
4 1 4 1 3 4 6 8 7 6 4 1 2 3 4 4 2 4 3 3 1 0 1 1 0 1 1 3 3 3 4 4 5 8 9 4 4 4 4 5 5 5 5 6 6 8 9 8 8 9 9 6 7 8 8 8 9 9 9 9 8 8 9 9 8 8 8 9 9 9 6 9 7 7 6 6 5 6 6 7 7 5 6 4 2 1 2
3 4 5 5 5 7 9 5 6 5 7 6 7 5 3 2 1 3 2 2 4 4 4 3 2 2 2 4 5 6 7 8 6 2 2 4 4 4 5 5 5 2 2 4 9 7 7 8 8 11 9 7 8 8 8 7 8 7 8 8 8 9 9 9 8 9 9 9 8 9 6 5 6 7 7 6 7 7 7 7 7 8 8 6 5 7 6
4 6 7 5 6 3 5 5 3 2 2 1 1 2 1 1 1 3 4 3 2 4 4 3 3 3 4 7 5 3 1 1 1 2 3 4 5 6 7 8 10 10 11 12 9 8 9 9 9 10 4 7 7 8 9 8 7 7 6 7 7 7 8 11 8 9 11 11 8 7 6 9 9 7 7 7 7 6 6 5 6 6 6 5 6 6 5
8 7 7 5 3 1 1 1 1 2 2 1 1 3 5 5 5 6 6 4 6 5 3 1 3 6 7 4 2 2 2 1 2 3 3 4 5 6 7 9 9 7 5 4 5 8 9 8 11 9 7 8 9 9 9 9 8 9 10 9 9 8 9 13 8 9 10 11 8 8 7 11 9 7 6 7 7 7 6 7 7 6 6 6 6 6 5
7 4 1 0 1 1 3 3 3 5 4 5 8 7 5 5 4 4 6 5 4 2 3 5 6 7 5 1 1 1 1 2 1 2 3 5 6 6 7 8 8 8 5 5 6 8 10 12 12 6 9 10 10 10 10 10 9 9 8 8 9 8 8 10 7 7 8 8 9 11 9 8 7 7 7 6 5 5 5 5 4 5 5 6 5 5 3
9 7 8 8 9 8 7 8 7 7 6 6 4 4 4 5 6 6 6 5 4 4 5 8 6 2 0 1 1 1 2 1 2 4 7 7 6 6 7 8 6 5 5 1 2 5 7 9 6 8 9 10 11 10 11 10 9 8 8 7 10 11 10 8 9 8 7 8 8 10 10 8 8 9 8 7 7 7 7 5 5 5 5 5 4 4 5
5 5 5 5 6 6 6 7 7 8 8 8 8 6 7 7 6 8 5 3 6 7 3 2 2 2 2 1 3 4 4 7 7 5 6 7 7 6 3 4 4 4 6 6 5 6 6 6 8 8 9 9 10 10 10 12 10 9 9 12 11 11 12 9 8 10 12 9 8 13 11 9 9 7 8 8 8 8 8 7 6 6 6 6 4 2 3
3 3 4 3 4 5 5 5 6 8 9 10 9 8 7 7 6 5 6 5 2 2 3 3 1 1 2 3 4 5 7 8 6 6 6 6 4 3 4 5 5 6 8 10 10 9 7 7 9 10 8 9 10 10 11 11 10 9 9 9 10 9 9 9 10 9 9 10 9 9 10 9 8 9 9 8 8 8 8 8 8 7 7 6 5 4 4
3 6 6 6 5 5 5 4 2 2 3 4 3 3 4 4 5 5 4 4 4 4 4 3 3 3 7 8 7 5 5 6 7 7 6 2 3 4 5 5 5 8 8 9 10 9 10 10 10 15 10 8 9 10 11 15 10 9 9 9 9 9 11 12 13 13 9 9 13 9 11 7 8 7 8 8 8 7 7 7 7 7 6 6 5 5 6
6 6 6 4 1 1 3 2 1 2 3 1 2 3 4 2 2 2 3 2 3 4 3 3 5 5 4 2 3 6 7 6 6 6 4 4 5 5 6 7 8 6 7 13 2 7 8 9 13 11 9 9 9 10 11 17 13 9 9 10 10 9 10 11 12 11 12 10 11 12 9 10 12 13 9 7 8 8 7 7 7 7 6 6 6 6 7
3 1 0 0 1 2 4 2 2 2 1 5 1 0 2 2 2 2 2 3 3 3 1 2 2 2 4 4 6 6 6 5 4 4 5 5 4 6 11 11 11 12 9 1 3 3 6 9 9 10 10 10 10 9 12 16 17 11 10 10 8 10 13 10 13 14 10 8 7 9 13 10 10 14 13 11 9 8 8 9 8 8 7 7 7 7 7
1 1 1 1 2 1 2 2 3 3 4 4 2 0 3 3 3 3 2 2 3 5 3 2 1 3 4 4 5 7 5 3 5 4 5 5 4 6 9 11 12 7 4 5 3 4 7 11 11 9 9 8 8 8 9 14 16 11 11 11 11 12 16 13 9 8 8 8 10 12 11 9 8 11 11 10 9 8 8 8 9 8 8 7 7 7 7
1 2 2 3 3 3 3 2 1 2 3 4 4 3 3 3 3 3 3 3 4 4 3 3 2 4 4 5 6 6 5 4 3 7 5 3 3 7 6 12 2 4 9 8 6 5 7 9 8 8 7 7 7 8 7 12 12 10 10 10 11 11 13 12 12 11 8 10 11 9 9 9 12 11 9 9 10 8 8 8 9 8 8 8 7 6 7
1 3 3 3 3 3 3 2 1 1 2 4 3 3 4 4 4 2 3 3 4 3 3 4 3 3 4 4 5 5 5 4 4 5 7 8 8 6 7 10 1 0 4 6 6 6 6 7 8 7 7 7 7 11 11 9 10 10 10 10 11 10 11 13 13 8 10 7 5 6 8 12 11 10 9 8 9 8 8 7 7 7 6 6 6 7 7
3 2 2 2 4 3 2 2 1 1 0 1 3 4 4 4 3 3 2 3 3 4 4 4 4 4 4 4 4 5 5 2 2 6 5 9 11 9 9 6 1 2 2 3 4 5 6 5 6 6 8 8 7 11 14 9 9 9 10 10 11 11 11 11 11 11 12 11 11 12 13 14 12 13 10 10 10 8 8 8 8 7 7 7 6 6 7
4 4 3 3 3 2 2 2 1 1 0 1 3 4 4 3 2 1 2 3 3 3 3 4 4 4 4 4 4 5 5 3 3 3 3 9 7 8 11 10 9 3 5 4 4 6 6 6 6 8 10 12 10 12 10 9 9 9 10 10 11 11 11 11 10 10 12 13 15 14 12 10 8 7 9 12 10 8 7 7 7 6 6 6 6 6 6
5 4 3 3 3 3 4 3 2 1 1 3 4 4 2 2 4 2 1 2 2 3 2 3 3 3 3 3 4 4 6 4 4 2 4 7 10 7 1 3 2 2 5 6 5 5 5 6 7 10 10 12 13 14 10 9 9 9 9 10 10 10 12 13 13 11 10 13 12 11 8 6 6 9 10 8 7 8 8 8 7 7 7 7 7 7 7
4 5 3 5 5 4 2 0 2 1 1 2 2 1 0 1 3 4 2 2 4 4 3 3 3 4 4 5 5 5 6 7 7 6 8 8 8 7 1 1 3 3 6 7 5 6 6 7 9 10 11 12 13 11 9 8 8 8 9 10 11 10 11 14 11 11 10 11 11 12 11 8 9 8 8 8 8 7 6 6 6 6 7 7 7 7 6
2 3 4 4 2 2 3 2 0 1 1 1 1 3 3 3 4 4 5 4 3 5 5 4 4 5 3 3 4 5 7 7 7 6 8 7 7 8 7 5 4 6 5 6 6 6 6 6 7 10 11 12 14 9 8 8 8 8 9 10 10 10 9 12 12 7 5 7 8 7 7 6 6 5 5 5 5 6 6 7 7 7 6 6 6 6 6
3 3 4 5 5 6 3 3 4 3 2 1 1 3 4 3 4 4 4 4 5 4 4 4 4 4 4 4 3 3 4 5 8 7 1 1 4 3 4 4 5 6 7 7 8 7 7 8 9 10 12 12 10 8 7 7 8 7 7 8 9 8 7 6 7 8 11 10 8 6 6 5 7 8 7 6 8 6 6 7 7 6 6 6 6 6 6
4 5 5 4 3 6 6 4 3 4 3 1 2 4 4 4 5 4 5 6 7 6 5 5 5 5 5 5 3 4 4 3 5 8 3 5 8 7 6 5 7 7 7 6 6 5 6 8 9 10 11 11 8 7 7 7 7 6 6 8 8 8 8 9 8 7 9 10 9 10 8 9 7 6 9 6 6 7 5 7 7 6 6 6 5 5 6
4 5 6 6 5 6 5 6 6 4 3 4 5 5 4 5 6 5 4 6 5 7 7 6 6 7 7 7 5 5 4 4 6 6 7 7 5 5 5 5 5 6 7 6 4 4 4 8 9 9 9 7 7 7 7 7 6 6 7 6 7 7 7 6 6 7 7 6 7 8 8 8 6 7 6 6 7 6 7 6 6 5 6 6 6 6 6
3 3 4 5 3 3 2 3 4 4 4 4 4 4 3 3 4 6 5 6 6 7 7 6 5 6 7 6 6 6 5 5 6 6 7 7 5 5 6 5 5 5 5 5 4 4 3 4 5 5 7 7 6 6 6 6 6 6 7 7 8 7 7 8 8 9 9 8 8 8 7 7 6 7 7 7 8 6 6 6 6 6 6 6 7 7 6
3 3 4 4 4 4 4 4 3 2 2 2 3 3 4 4 4 5 5 4 4 6 6 8 9 3 2 3 6 5 5 5 6 6 7 7 5 5 6 5 4 4 3 3 2 1 2 3 3 4 5 5 4 5 4 5 6 5 5 4 5 6 5 5 5 8 7 6 7 6 5 5 5 7 7 8 7 6 7 7 7 6 6 6 6 6 6
Wind_Direction
179 192 146 164 175 191 188 186 189 185 193 188 206 222 214 126 202 239 119 210 245 231 180 218 221 229 246 252 268 236 234 265 220 165 161 174 190 189 191 206 204 197 199 193 186 184 184 175 182 183 177 174 159 151 151 151 148 148 145 139 140 140 139 140 142 139 134 131 128 129 127 126 127 126 122 121 119 112 103 101 98 105 106 107 103 86 71
170 222 162 170 174 189 164 189 199 197 190 203 211 220 209 198 237 249 237 253 259 210 196 202 212 216 226 238 218 243 199 225 215 180 175 189 196 200 206 209 206 201 192 180 187 183 186 188 186 184 180 178 173 163 161 157 152 156 145 147 143 144 142 142 141 139 136 134 134 132 129 128 126 122 119 113 104 95 90 95 100 103 98 86 85 87 85
241 232 120 183 182 165 195 211 208 207 209 213 211 210 212 213 241 245 253 268 266 242 174 210 202 209 189 122 232 222 231 247 181 178 200 208 209 214 217 214 205 189 183 186 186 194 197 194 191 183 178 171 164 162 164 162 159 159 149 144 145 145 145 146 143 140 138 140 139 136 136 128 129 125 118 112 101 97 94 91 94 91 91 84 80 82 87
250 201 137 186 165 179 203 219 217 218 209 211 217 220 200 198 230 236 251 257 251 150 189 184 150 67 160 219 237 250 254 236 175 184 212 215 222 222 221 214 189 184 192 192 197 200 200 196 187 181 177 175 170 173 168 167 162 156 151 150 150 150 149 148 149 147 145 142 136 137 135 132 128 122 115 111 111 113 111 102 93 88 76 82 78 71 72
230 276 137 136 105 93 317 252 226 209 200 206 203 223 210 212 213 213 226 238 236 198 113 125 149 188 206 214 225 243 253 226 191 202 212 218 223 224 219 199 196 198 198 200 201 200 192 193 191 190 175 170 180 173 169 165 151 157 157 156 153 151 155 153 152 147 146 140 136 134 132 128 124 117 115 113 115 114 110 115 99 81 79 73 66 61 62
205 143 140 109 116 173 228 247 119 158 194 186 194 221 218 224 198 223 230 248 266 173 168 166 191 199 211 201 225 218 222 223 211 232 232 230 229 231 225 207 203 205 204 206 204 199 196 192 188 174 178 175 167 159 155 152 161 164 158 159 157 155 154 155 151 148 145 140 136 135 133 127 124 121 118 117 114 113 113 97 92 86 68 67 59 55 54
151 172 111 130 194 225 237 42 162 176 180 184 205 219 217 218 224 247 264 262 247 228 222 202 203 218 247 231 220 248 235 210 206 210 222 229 230 228 220 214 212 208 206 205 200 193 195 185 172 163 169 167 153 152 160 162 168 162 164 156 158 158 155 154 151 150 146 142 137 137 134 130 126 123 122 119 112 110 104 98 92 84 71 66 54 56 49
63 98 159 163 226 234 331 269 358 219 172 194 195 251 253 236 218 222 235 242 242 233 252 197 197 219 245 274 241 236 242 207 207 212 223 227 223 225 221 212 214 207 204 201 195 200 179 160 171 172 168 156 157 161 159 164 163 168 162 162 160 159 157 159 159 156 149 144 141 140 138 135 132 129 124 125 123 120 104 92 83 87 64 63 55 47 46
156 194 180 224 330 325 266 242 156 158 155 142 180 213 241 226 222 217 236 250 246 249 263 240 229 246 311 278 257 214 225 231 224 216 222 220 221 221 228 214 218 212 207 202 197 160 160 171 165 172 161 157 156 156 164 169 167 166 167 168 168 165 161 160 158 157 154 147 145 144 144 139 137 136 132 125 116 115 103 94 91 79 83 76 74 60 41
130 134 209 330 281 258 246 165 185 157 167 169 165 178 266 222 219 212 226 242 242 233 241 240 211 102 261 270 260 196 209 225 230 234 237 248 251 253 260 254 238 209 187 157 150 166 164 169 170 159 160 160 158 162 167 166 168 171 174 175 170 166 165 162 159 157 156 151 146 146 148 145 140 133 122 111 110 108 114 115 99 96 91 80 64 68 57
91 128 173 203 205 239 112 160 174 180 164 146 126 102 256 270 175 204 207 232 239 227 230 227 131 164 225 252 263 206 205 226 228 239 245 240 244 244 227 212 207 181 169 160 151 145 156 164 172 161 159 158 160 170 171 171 173 174 181 175 173 172 167 159 156 153 152 151 147 147 144 142 140 137 134 127 119 103 99 98 102 103 87 84 73 61 66
190 171 172 224 212 247 218 179 187 173 142 113 97 66 254 215 193 191 189 210 224 226 229 194 164 185 236 253 262 193 205 213 214 206 234 248 249 246 236 252 192 154 134 126 148 163 176 181 163 162 159 163 169 170 173 171 178 185 183 176 164 147 143 147 147 146 148 146 146 144 140 133 130 126 126 118 114 109 98 100 106 96 91 88 94 80 71
178 173 235 321 286 259 217 199 161 144 140 130 141 211 226 213 198 187 169 207 222 219 210 144 203 223 219 240 239 174 38 137 236 258 276 262 257 235 201 173 136 145 165 168 175 181 176 159 160 162 163 163 174 176 171 176 189 181 156 138 136 138 137 138 139 141 138 144 140 134 135 134 126 118 117 120 117 110 110 102 98 93 94 102 105 96 71
179 197 188 229 257 236 173 261 151 163 103 173 208 220 192 155 214 210 183 202 223 186 187 191 209 230 229 239 71 279 212 206 241 229 251 82 55 34 81 149 153 150 158 158 149 153 161 161 163 165 167 173 173 170 174 186 179 147 142 144 142 145 149 147 143 138 135 127 125 129 130 128 124 115 108 105 107 109 106 108 109 107 105 110 115 97 76
58 88 202 115 249 242 130 119 99 277 179 221 174 167 229 190 188 177 207 198 223 178 213 211 217 234 251 251 238 236 236 199 218 207 203 193 175 157 132 150 180 154 155 168 172 167 160 163 166 169 168 171 173 173 185 182 152 147 147 147 147 147 143 140 140 137 134 134 132 132 131 129 126 120 118 109 103 105 114 116 117 119 120 122 110 86 71
164 171 189 211 216 120 168 141 180 203 209 195 156 128 184 233 165 178 179 218 209 198 201 209 224 233 242 275 249 246 257 244 278 231 220 208 182 199 220 184 174 169 163 166 161 162 163 167 171 172 174 175 176 179 182 141 139 137 139 141 140 139 141 140 136 134 132 125 121 121 128 127 120 122 120 114 106 110 117 124 130 130 123 114 94 95 93
149 196 215 225 187 170 188 173 167 179 204 168 187 151 170 177 237 184 160 208 221 203 212 225 210 220 223 228 207 196 233 207 201 198 209 199 199 193 189 187 184 179 169 165 154 157 170 170 176 178 181 176 171 178 166 146 149 149 146 144 143 144 143 142 138 135 125 124 124 122 128 133 132 131 126 130 118 119 126 122 145 127 108 104 113 128 150
223 255 224 100 37 186 209 283 213 192 194 169 149 163 159 226 192 172 184 205 207 210 213 211 246 215 213 196 211 216 222 206 217 209 210 223 208 192 147 141 148 136 111 129 150 158 170 177 173 179 182 176 176 172 143 151 149 147 145 145 145 147 145 143 144 139 129 124 121 124 125 122 126 133 139 140 131 128 133 144 127 119 123 126 135 156 183
162 244 222 154 195 190 199 209 202 314 240 196 176 177 198 204 164 184 222 185 195 190 169 199 217 223 177 191 207 204 207 211 209 200 204 205 190 180 183 177 148 140 147 154 168 171 174 186 175 176 169 170 157 140 158 151 148 146 147 147 144 147 148 145 145 145 142 143 138 131 125 121 116 118 124 125 135 141 143 125 125 130 139 153 158 173 185
192 233 200 181 202 195 208 177 153 216 219 218 211 215 187 163 169 157 174 145 145 151 174 193 184 211 194 184 203 199 213 211 204 206 204 196 186 201 166 156 153 146 165 173 173 176 182 181 172 162 159 153 144 145 146 149 145 145 148 154 154 155 153 152 153 155 152 147 144 142 146 142 131 123 102 142 152 150 151 152 145 153 159 170 177 183 179
247 330 354 359 75 129 240 248 259 214 185 178 180 166 140 143 136 155 174 201 181 177 196 169 158 158 212 205 194 200 206 215 218 217 204 193 183 154 155 166 170 176 175 177 182 179 177 165 160 157 150 137 141 149 148 148 151 149 151 147 144 147 151 150 155 157 156 159 157 142 129 103 76 74 130 160 148 123 135 129 144 150 164 174 188 187 153
225 220 211 134 147 224 240 222 210 211 210 157 149 138 146 163 163 174 159 161 159 187 179 167 168 185 203 198 177 198 209 216 214 186 176 168 164 161 148 145 168 179 187 183 177 182 174 167 165 160 154 150 153 153 152 156 157 155 153 150 154 162 162 161 158 158 157 150 147 142 128 130 129 125 146 146 147 128 158 188 195 187 167 186 189 158 126
224 222 197 190 194 78 224 207 193 200 164 151 156 183 186 199 206 179 156 161 198 186 215 194 172 188 172 205 181 202 214 225 206 191 170 169 170 171 162 160 188 191 190 182 181 183 176 163 170 166 161 161 159 162 163 165 165 163 160 161 166 165 165 173 170 162 156 141 148 125 133 131 148 136 124 113 134 138 135 172 189 181 164 153 140 137 142
3 247 202 165 142 199 188 192 159 172 176 164 178 203 216 212 194 190 184 182 161 212 284 251 202 180 179 180 169 209 226 204 178 188 183 177 179 172 178 187 185 184 188 186 190 190 170 172 170 168 164 172 170 169 171 170 171 169 175 170 171 174 171 165 162 166 139 147 137 146 136 155 163 146 141 133 114 136 155 165 162 156 151 140 131 128 129
190 129 142 147 116 98 91 118 124 47 106 161 147 175 189 168 95 147 139 323 310 137 124 152 241 192 175 189 181 197 203 209 193 178 173 172 172 175 188 191 196 194 194 192 187 173 168 172 172 171 174 180 175 175 177 177 173 177 184 187 172 164 162 163 163 160 165 158 159 155 156 160 165 163 157 156 152 150 158 166 158 156 154 145 133 132 121
127 112 97 92 83 94 125 91 55 52 51 78 85 70 40 134 144 120 131 174 221 312 323 290 280 249 174 173 199 194 168 196 180 156 157 176 178 182 198 204 197 182 180 177 180 176 176 179 179 179 188 188 181 181 177 180 182 186 187 190 181 172 169 170 164 168 172 175 159 155 160 159 161 167 172 169 163 157 151 155 151 149 148 140 136 127 122
115 143 112 76 78 69 134 121 159 170 75 50 99 99 43 56 79 88 70 50 46 2 321 291 267 15 56 186 160 174 179 147 119 171 187 192 200 209 200 177 177 177 171 173 181 186 182 183 187 194 198 188 174 170 176 179 181 183 184 176 166 166 167 168 173 175 175 170 149 145 162 168 170 174 168 170 167 164 168 169 169 170 185 206 149 137 119
153 192 105 137 174 171 186 148 118 125 118 125 127 126 131 77 80 86 85 66 350 340 355 37 131 121 141 256 123 95 83 143 183 196 197 217 212 174 164 168 167 170 175 181 189 186 189 193 198 199 204 176 167 169 174 180 183 185 180 174 170 172 172 178 176 176 175 169 168 164 167 167 159 165 163 164 168 171 160 150 153 153 165 188 214 139 123
191 131 26 67 146 142 102 111 104 114 112 104 113 124 132 123 167 173 196 209 221 332 243 260 357 216 183 207 164 167 178 185 199 209 216 202 155 156 150 154 158 165 173 189 195 195 196 199 200 207 209 170 166 169 175 183 189 187 182 179 174 174 178 181 180 170 164 143 158 152 157 142 150 155 161 160 151 151 151 158 161 165 158 167 101 98 86
62 38 64 63 82 116 114 119 148 159 149 157 155 151 177 192 236 282 250 188 181 205 202 182 212 220 186 192 210 187 192 205 217 224 172 158 158 151 148 131 105 106 173 219 217 199 200 202 205 214 206 165 171 169 173 185 195 195 189 186 185 182 182 175 169 169 161 168 164 161 156 152 149 159 159 163 167 164 166 171 173 166 164 179 169 169 164
72 58 70 69 70 71 113 159 146 132 119 72 66 100 24 52 215 269 273 285 318 281 268 228 227 247 233 223 219 195 191 158 160 159 153 159 164 171 164 162 166 199 208 217 205 198 201 210 213 221 176 159 166 169 174 186 192 190 194 194 194 184 167 167 168 158 145 136 158 155 149 144 159 167 169 164 163 167 177 183 172 171 176 175 175 182 202
83 52 47 31 32 54 43 40 136 197 159 99 106 203 205 188 220 230 244 250 244 239 248 255 248 246 244 236 183 168 171 139 123 131 154 171 187 193 191 198 216 226 224 195 185 192 202 204 219 209 151 163 166 176 179 187 186 193 203 193 186 180 167 165 163 168 164 166 165 161 167 159 171 171 166 172 174 178 179 176 182 183 182 179 189 195 205
118 87 55 38 43 5 264 263 192 229 198 198 215 218 214 221 229 237 232 233 261 244 207 237 244 247 262 269 172 159 138 107 103 135 178 207 215 207 206 212 222 230 228 206 191 191 195 208 216 165 164 170 174 178 186 191 196 201 200 185 178 171 169 175 156 145 149 160 163 153 148 171 169 169 175 164 165 170 178 183 184 188 192 196 199 215 208
170 188 187 185 175 189 204 227 215 221 230 232 241 244 245 236 230 241 252 246 254 264 236 235 241 265 297 193 176 124 111 113 241 244 230 231 228 221 215 216 226 234 247 223 196 204 208 214 193 177 177 174 179 180 187 191 200 204 191 170 172 169 171 167 166 163 151 176 173 169 159 165 172 173 159 164 168 172 174 173 186 194 203 209 211 218 223
181 204 197 201 204 210 206 202 197 203 209 218 235 238 234 238 234 237 245 243 234 241 281 335 278 220 173 149 159 175 183 214 234 234 237 228 236 224 202 211 243 261 262 251 228 233 219 209 198 181 173 177 180 186 189 196 198 200 200 189 189 188 178 162 172 172 183 180 147 154 169 176 177 171 170 169 175 176 174 172 178 188 198 205 222 214 234
188 244 274 265 234 224 219 211 197 194 195 204 214 218 225 233 238 248 243 235 281 294 270 261 233 145 168 179 202 209 217 229 235 241 245 238 216 157 158 196 212 235 248 262 240 218 210 213 198 180 175 184 188 191 191 190 196 198 196 189 193 191 186 189 184 183 172 155 173 167 164 171 163 169 173 174 177 176 176 174 179 189 192 196 192 196 224
213 210 222 218 218 208 218 225 223 210 225 226 241 253 257 240 224 236 237 242 244 238 233 204 175 191 221 222 222 227 225 221 223 227 238 203 146 157 181 200 204 221 229 260 250 188 203 202 190 184 185 189 192 195 193 188 193 190 189 193 197 193 189 174 174 171 173 167 162 169 166 166 172 177 177 178 179 180 172 175 182 186 191 191 189 193 205
217 206 229 240 262 178 215 229 214 186 187 191 250 220 233 252 255 238 234 244 260 260 244 197 212 233 243 234 215 230 238 228 226 233 222 179 168 173 207 200 220 200 218 234 193 155 199 186 180 184 193 196 197 194 191 192 194 188 193 197 195 192 192 192 185 175 174 167 165 158 172 177 167 158 171 176 181 175 176 177 179 184 188 193 196 197 201
256 238 67 60 89 86 101 48 45 58 124 200 229 321 21 13 17 32 30 13 338 331 269 255 272 272 268 253 256 255 254 249 243 232 220 209 198 192 222 220 219 211 218 56 126 166 165 176 184 191 199 205 196 193 189 191 191 195 197 199 195 179 183 190 193 185 168 168 163 174 162 177 180 172 177 178 176 173 177 175 178 184 187 196 196 204 204
211 90 172 98 98 73 86 65 54 57 39 57 81 44 341 11 8 6 359 11 2 19 5 338 297 259 265 256 258 268 271 252 230 217 226 212 197 236 271 276 255 247 246 203 164 171 179 180 185 200 206 202 192 192 192 190 192 197 198 198 200 200 190 193 187 180 177 174 184 187 185 185 177 178 177 176 170 176 179 179 182 188 192 196 199 203 205
151 141 124 105 104 84 89 93 68 5 44 49 49 39 26 29 346 8 350 346 323 352 353 350 290 279 268 259 262 269 289 299 235 223 204 147 200 233 246 268 271 166 211 210 203 186 182 187 192 200 211 195 200 192 190 188 192 204 206 205 199 199 179 188 181 179 176 183 187 186 180 163 165 173 177 174 176 184 184 186 188 191 192 192 198 199 207
181 124 110 101 91 86 81 80 109 84 30 30 27 30 22 18 34 2 321 341 331 345 350 336 311 281 297 306 300 297 296 284 260 239 195 203 218 213 228 265 47 206 201 203 198 188 191 199 206 208 203 195 195 193 187 185 196 203 206 208 208 202 197 200 203 200 197 192 173 167 181 183 178 166 178 173 179 184 185 184 189 193 194 190 195 201 203
49 75 82 89 76 62 49 63 73 182 322 8 6 3 345 356 6 358 358 356 348 340 341 334 336 338 335 331 321 305 298 310 268 267 268 255 244 233 236 258 356 349 155 176 183 196 202 210 207 218 204 199 197 190 188 193 197 202 208 208 207 207 204 198 201 193 168 160 188 189 174 170 179 181 182 171 172 183 181 186 191 192 188 192 198 201 211
61 58 59 66 55 66 84 70 57 46 44 321 333 342 346 342 0 8 352 341 333 329 326 323 332 330 326 328 335 306 301 323 304 296 292 288 284 254 234 255 272 218 182 192 195 205 214 207 214 209 209 204 197 186 192 200 201 204 208 207 208 207 203 201 199 196 198 198 188 180 170 184 186 179 171 164 163 174 184 190 189 187 186 188 195 204 210
55 55 51 56 67 68 58 54 53 6 297 305 323 332 349 2 348 339 312 311 301 298 306 295 301 303 301 305 286 272 281 283 274 250 263 276 291 297 349 334 293 218 219 218 220 218 220 213 213 209 207 203 200 193 197 201 206 208 208 208 208 206 202 191 198 191 189 166 176 172 191 197 179 182 141 174 179 185 190 190 192 187 179 188 193 200 209
36 24 26 43 37 24 343 261 273 303 312 315 342 343 13 352 325 315 298 284 299 284 267 277 283 278 277 282 284 281 280 274 256 232 231 234 245 258 82 20 266 255 231 230 232 233 229 222 214 212 207 203 199 198 206 207 208 209 209 210 209 208 195 166 196 163 166 156 169 166 173 166 170 175 170 168 176 180 187 182 188 188 191 196 198 199 201
9 14 29 36 355 339 333 320 268 65 33 48 24 315 313 335 319 304 293 284 258 272 286 284 272 272 265 259 267 306 313 309 285 233 233 248 263 277 297 292 269 254 242 233 234 234 229 222 218 211 206 203 198 203 205 206 209 213 212 212 211 209 188 160 171 159 163 171 186 188 193 192 188 165 175 177 179 187 190 191 199 198 195 197 198 194 196
3 2 343 353 344 327 355 32 47 40 36 79 245 257 286 308 316 303 295 296 299 303 305 300 294 294 299 297 267 236 246 267 301 302 349 1 324 307 293 280 264 253 250 250 250 244 227 221 217 211 207 202 201 206 203 206 210 213 213 213 212 205 186 181 171 173 163 172 184 166 164 169 173 168 168 169 178 192 199 196 201 201 196 197 200 199 199
10 336 314 349 20 25 26 21 20 6 322 307 348 306 306 320 311 320 319 330 339 326 311 301 301 293 292 282 285 284 275 267 236 265 315 353 319 304 287 278 274 265 256 256 250 250 222 217 215 211 205 199 204 204 203 205 207 207 210 208 208 204 201 204 205 195 195 189 168 170 175 174 177 175 169 190 184 192 200 204 207 206 204 198 200 201 206
340 12 10 359 358 351 355 355 340 304 296 322 314 301 317 335 342 322 332 330 311 301 301 297 291 287 285 293 290 283 289 290 291 288 291 291 289 290 280 275 268 262 256 257 255 246 217 210 210 205 198 202 205 203 205 204 204 204 203 202 199 199 195 187 188 192 193 171 166 169 181 183 185 198 203 197 195 203 205 210 213 202 186 192 207 209 209
339 352 334 316 307 291 279 249 259 291 306 293 292 301 316 329 299 299 317 306 314 311 303 291 284 278 284 275 283 290 297 299 294 291 294 293 287 277 278 273 271 271 262 257 249 240 216 204 211 203 202 207 204 205 202 203 203 200 197 197 194 190 183 184 187 188 185 178 166 175 185 185 194 189 186 186 206 212 210 211 209 208 205 208 208 212 212
260 258 271 290 289 284 283 280 284 268 257 279 305 316 323 310 312 307 304 291 295 294 298 311 308 289 245 256 280 290 296 295 295 297 297 295 291 287 288 287 286 284 274 263 264 245 237 227 209 204 202 204 205 200 201 199 199 198 198 195 193 195 187 172 149 138 161 183 179 173 191 181 178 197 201 176 201 214 217 213 214 210 209 212 211 210 212